Shannon, Ireland

8:57 AM IST on May 28, 2017 (GMT +0100)
Shannon

Weather History for EINN - May, 2013

Change the Weather History Date:

Friday, May 3, 2013

  Actual Average Record
Temperature  
Mean Temperature 52 °F -  
Max Temperature 57 °F 60 °F 73 °F (2007)
Min Temperature 48 °F 46 °F 39 °F (2002)
Degree Days  
Heating Degree Days 12    
Growing Degree Days 2 (Base 50)    
Moisture  
Dew Point 47 °F    
Average Humidity 82    
Maximum Humidity 100    
Minimum Humidity 56    
Precipitation  
Precipitation 0.01 in 0.08 in - ()
Sea Level Pressure  
Sea Level Pressure 30.00 in    
Wind  
Wind Speed 14 mph ()    
Max Wind Speed 30 mph    
Max Gust Speed 40 mph    
Visibility 6.5 miles    
Events Rain    
Averages and records for this station are not official NWS values.
T = Trace of Precipitation, MM = Missing Value Source: Averaged Metar Reports

Daily Weather History Graph

Daily Weather History Graph

Search for Another Location

Airport or City:

Trip Planner

Search our weather history database for the weather conditions in past years. The results will help you decide how hot, cold, wet, or windy it might be!

Date:

Astronomy

May. 03, 2013 Rise Set
Actual Time 5:59 AM IST 9:06 PM IST
Civil Twilight 5:19 AM IST 9:46 PM IST
Nautical Twilight 4:26 AM IST 10:40 PM IST
Astronomical Twilight 3:16 AM IST 11:51 PM IST
Moon 3:08 AM IST (5/3) 1:57 PM IST (5/3)
Length of Visible Light 16h 27m
Length of Day
15h 06m
Last Quarter, 39% of the Moon is Illuminated
May 3
Last Quarter
May 10
New
May 18
First Quarter
May 25
Full
May 31
Last Quarter

Hourly Weather History & Observations

Time (IST) Temp. Dew Point Humidity Pressure Visibility Wind Dir Wind Speed Gust Speed Precip Events Conditions
12:00 AM 51.8 °F 46.4 °F 82% 30.15 in 6.2 mi SSW 11.5 mph - N/A   Mostly Cloudy
12:30 AM 51.8 °F 48.2 °F 88% 30.12 in 6.2 mi SSW 10.4 mph - N/A   Mostly Cloudy
1:00 AM 51 °F 47 °F 82% 30.14 in 16 mi SSW 11.2 mph - -   Partly Cloudy
1:00 AM 51.8 °F 46.4 °F 82% 30.12 in 6.2 mi SSW 10.4 mph - N/A   Mostly Cloudy
1:30 AM 51.8 °F 46.4 °F 82% 30.12 in 6.2 mi South 10.4 mph - N/A   Mostly Cloudy
2:00 AM 50.0 °F 46.4 °F 87% 30.12 in 6.2 mi South 9.2 mph - N/A   Mostly Cloudy
2:30 AM 50.0 °F 46.4 °F 87% 30.09 in 6.2 mi South 9.2 mph - N/A   Mostly Cloudy
3:00 AM 50.0 °F 46.4 °F 87% 30.09 in 6.2 mi SSE 11.5 mph - N/A   Mostly Cloudy
3:30 AM 50.0 °F 46.4 °F 87% 30.06 in 6.2 mi South 11.5 mph - N/A   Mostly Cloudy
4:00 AM 50.0 °F 46.4 °F 87% 30.06 in 6.2 mi South 10.4 mph - N/A   Mostly Cloudy
4:30 AM 50.0 °F 46.4 °F 87% 30.06 in 6.2 mi South 10.4 mph - N/A   Mostly Cloudy
5:00 AM 50.0 °F 46.4 °F 87% 30.06 in 6.2 mi South 10.4 mph - N/A   Mostly Cloudy
5:30 AM 50.0 °F 46.4 °F 87% 30.04 in 6.2 mi SSE 11.5 mph - N/A   Mostly Cloudy
6:00 AM 50.0 °F 46.4 °F 87% 30.04 in 6.2 mi South 10.4 mph - N/A   Mostly Cloudy
6:30 AM 50.0 °F 46.4 °F 87% 30.04 in 6.2 mi South 10.4 mph - N/A   Mostly Cloudy
7:00 AM 51 °F 46 °F 77% 30.05 in 19 mi South 11.2 mph - -   Mostly Cloudy
7:00 AM 51.8 °F 46.4 °F 82% 30.04 in 6.2 mi South 10.4 mph - N/A   Mostly Cloudy
7:30 AM 51.8 °F 46.4 °F 82% 30.04 in 6.2 mi South 11.5 mph - N/A   Mostly Cloudy
8:00 AM 51.8 °F 46.4 °F 82% 30.04 in 6.2 mi SSW 15.0 mph - N/A   Mostly Cloudy
8:30 AM 53.6 °F 46.4 °F 77% 30.04 in 6.2 mi SSW 13.8 mph - N/A   Mostly Cloudy
9:00 AM 53.6 °F 46.4 °F 77% 30.04 in 6.2 mi SSW 17.3 mph - N/A   Mostly Cloudy
9:30 AM 55.4 °F 48.2 °F 77% 30.01 in 6.2 mi SW 18.4 mph - N/A   Mostly Cloudy
10:00 AM 55.4 °F 48.2 °F 77% 30.01 in 6.2 mi SW 21.9 mph - N/A   Mostly Cloudy
10:30 AM 55.4 °F 48.2 °F 77% 30.01 in 6.2 mi SW 20.7 mph - N/A   Mostly Cloudy
11:00 AM 55.4 °F 48.2 °F 77% 30.01 in 6.2 mi SW 20.7 mph - N/A   Mostly Cloudy
11:30 AM 57.2 °F 48.2 °F 72% 30.01 in 6.2 mi SW 24.2 mph - N/A   Mostly Cloudy
12:00 PM 55.4 °F 46.4 °F 72% 30.01 in 6.2 mi SW 27.6 mph 40.3 mph N/A   Overcast
12:30 PM 55.4 °F 46.4 °F 72% 30.01 in 6.2 mi SW 25.3 mph - N/A   Overcast
1:00 PM 57 °F 46 °F 56% 30.00 in 19 mi SW 26.8 mph - -   Partly Cloudy
1:00 PM 57.2 °F 46.4 °F 67% 29.98 in 6.2 mi SW 27.6 mph - N/A   Mostly Cloudy
1:30 PM 57.2 °F 44.6 °F 63% 29.98 in 6.2 mi SW 27.6 mph - N/A   Mostly Cloudy
2:00 PM 55.4 °F 48.2 °F 77% 29.98 in 6.2 mi SW 25.3 mph - N/A   Mostly Cloudy
2:30 PM 57.2 °F 48.2 °F 72% 29.98 in 6.2 mi SW 29.9 mph - N/A   Mostly Cloudy
3:00 PM 57.2 °F 46.4 °F 67% 29.98 in 6.2 mi SW 28.8 mph - N/A   Mostly Cloudy
3:30 PM 55.4 °F 48.2 °F 77% 29.95 in 6.2 mi SW 26.5 mph - N/A   Mostly Cloudy
4:00 PM 57.2 °F 48.2 °F 72% 29.95 in 6.2 mi SW 25.3 mph - N/A   Mostly Cloudy
4:30 PM 57.2 °F 48.2 °F 72% 29.95 in 6.2 mi SW 26.5 mph - N/A   Mostly Cloudy
5:00 PM 55.4 °F 48.2 °F 77% 29.95 in 6.2 mi SW 24.2 mph - N/A   Mostly Cloudy
5:30 PM 55.4 °F 48.2 °F 77% 29.92 in 6.2 mi SW 21.9 mph - N/A   Light Drizzle
6:00 PM 53.6 °F 50.0 °F 88% 29.92 in 4.3 mi SW 23.0 mph - N/A   Light Drizzle
6:30 PM 53.6 °F 50.0 °F 88% 29.92 in 3.7 mi SW 21.9 mph - N/A Rain Light Rain
7:00 PM 53 °F 50 °F 86% 29.91 in 6 mi SW 20.1 mph - - Rain Light Drizzle
7:00 PM 53.6 °F 50.0 °F 88% 29.89 in 5.6 mi SW 19.6 mph - N/A   Light Drizzle
7:30 PM 51.8 °F 50.0 °F 94% 29.89 in 3.1 mi SW 23.0 mph - N/A Rain Light Rain
8:00 PM 51.8 °F 50.0 °F 94% 29.89 in 2.5 mi WSW 18.4 mph - N/A Rain Light Rain
8:30 PM 50.0 °F 48.2 °F 94% 29.92 in 2.8 mi WSW 11.5 mph - N/A Rain Light Rain
9:00 PM 48.2 °F 48.2 °F 100% 29.92 in 3.7 mi WSW 13.8 mph - N/A Rain Light Rain
9:30 PM 48.2 °F 46.4 °F 93% 29.92 in 4.3 mi WSW 13.8 mph - N/A Rain Light Rain
10:00 PM 48.2 °F 44.6 °F 87% 29.92 in 5.6 mi WSW 16.1 mph - N/A Rain Light Rain
10:30 PM 48.2 °F 46.4 °F 93% 29.89 in 6.2 mi SSW 9.2 mph - N/A   Mostly Cloudy
11:00 PM 48.2 °F 46.4 °F 93% 29.89 in 6.2 mi SW 13.8 mph - N/A   Mostly Cloudy
11:30 PM 50.0 °F 48.2 °F 94% 29.89 in 6.2 mi SW 10.4 mph - N/A   Mostly Cloudy